Location: Palomar Mountain Lodge
(33.3110°N, 116.8495°W)
Time: 14:10:41
(UTC-07:00)

Daily predictions for brighter satellites

Satellite Brightness Start Highest point End
(mag) Time Altitude Azimuth Time Altitude Azimuth Time Altitude Azimuth
COSMOS 2406 3.6 20:08:08 10° N 20:13:41 49° ENE 20:19:10 10° SE
Cosmos 2278 Rocket 3.1 20:09:50 10° SSE 20:14:30 27° ESE 20:19:10 10° NE
Cosmos 1844 Rocket 2.7 20:09:01 10° S 20:14:35 62° ESE 20:20:09 10° NNE
Meteosat 1 Rocket2 4.0 20:11:30 10° WSW 20:16:13 53° S 20:23:19 10° E
Cosmos 1844 3.9 20:14:24 10° S 20:19:53 50° ESE 20:25:28 10° NNE
Cosmos 2056 Rocket 3.6 20:15:14 10° SSW 20:20:24 86° WNW 20:25:33 10° NNE
FENGYUN 3A 3.7 20:16:17 10° SSE 20:21:37 70° ENE 20:26:59 10° N
Meteor 2-10 Rocket 3.8 20:16:04 10° N 20:21:46 60° E 20:27:15 10° SSE
PSLV R/B 3.4 20:18:42 10° WNW 20:22:06 72° NNE 20:25:32 10° ESE
Cosmos 1733 Rocket 3.1 20:18:45 10° S 20:23:05 62° E 20:27:24 10° NNE
CZ-4 DEB 3.4 20:29:29 10° SE 20:32:23 35° ENE 20:35:19 10° N
SL-27 R/B 2.9 20:29:32 10° N 20:33:02 46° ENE 20:36:19 11° SE
GPS 2-05 Rocket1 3.1 20:32:37 10° W 20:36:20 74° N 20:40:00 10° ENE
CZ-2D R/B 3.6 20:33:55 10° S 20:37:41 68° W 20:41:29 10° NNW
deb Chang Zheng 4 4.4 20:34:35 10° NE 20:38:30 31° E 20:42:25 10° SSE
ERBS 3.0 20:40:19 10° NW 20:43:40 50° SW 20:46:41 12° SSE
Intelsat 3F5 C 4.4 20:43:44 10° WSW 20:46:59 48° S 20:48:48 21° ESE
YAOGAN 11 4.2 20:44:42 10° SSE 20:49:08 64° ENE 20:53:39 10° N
Cosmos 1862 3.8 20:45:25 10° SSE 20:49:12 40° E 20:53:03 10° NNE
Meteor 1-10 Rocket 4.2 20:43:57 10° N 20:49:46 79° E 20:55:24 10° S
Cosmos 2154 Rocket 4.1 20:46:10 10° SSE 20:52:12 56° E 20:58:14 10° NNE
H-2A R/B 3.0 20:49:42 17° ESE 20:52:12 31° ENE 20:55:56 10° N
Envisat 3.6 20:49:15 16° SE 20:52:50 38° ENE 20:57:30 10° N
SEDSat Delta rocket 3.5 20:50:30 10° SW 20:54:37 36° SSE 20:56:52 20° ESE
COSMOS 2487 4.0 20:53:41 10° NNE 20:56:31 21° ENE 20:57:31 19° E
Cosmos 1606 3.1 20:54:08 10° N 20:57:54 44° E 21:00:04 22° SE
EO 1 Delta rocket 4.2 20:54:05 10° NNE 20:59:35 51° E 21:04:05 11° S
OAO 1 Rocket 4.4 20:54:44 10° WSW 21:00:01 74° SSE 21:05:03 11° E
APEX 3.9 20:58:14 18° SSE 21:00:24 33° ESE 21:04:28 10° NE
Cosmos 1420 Rocket 4.2 20:58:49 10° S 21:03:50 47° ESE 21:08:49 10° NNE
H-2A R/B 3.6 21:00:28 10° WSW 21:04:25 59° S 21:27:20 10° E
ALOS 3.8 21:00:29 10° SSW 21:04:44 35° W 21:09:01 10° NNW
ATLAS 2A CENTAUR R/B 2.2 21:03:50 10° SW 21:05:56 17° SSW 21:05:56 17° SSW
ERS-1 Rocket 2.9 21:02:48 14° SSE 21:07:12 82° ENE 21:12:14 10° N
SJ-11-01 4.3 21:05:31 14° SSE 21:09:38 89° W 21:14:24 10° NNW
USA 186 4.2 21:10:17 10° SSW 21:12:43 21° W 21:15:15 10° NW
Cosmos 407 Rocket 3.6 21:09:44 10° NNW 21:15:01 80° WSW 21:18:59 18° S
Okean 3 3.8 21:12:20 10° N 21:16:26 45° E 21:17:45 33° SE
Meteor 1-27 Rocket 3.6 21:10:55 10° N 21:16:28 78° E 21:20:23 20° SSE
Cosmos 1140 Rocket 4.2 21:13:04 10° N 21:17:50 37° ENE 21:19:37 28° ESE
Cosmos 1782 3.6 21:14:18 10° NNW 21:18:13 50° W 21:21:50 12° SSW
Cosmos 1452 Rocket 4.3 21:18:08 10° SSW 21:23:14 52° WNW 21:28:24 10° N
H-2A R/B 4.1 21:22:52 13° ENE 21:23:42 13° ENE 21:26:05 10° NE
Okean 2 Rocket 3.0 21:22:30 28° SSE 21:24:42 62° E 21:29:04 10° NNE
Cosmos 1184 Rocket 2.9 21:26:17 29° SSW 21:27:50 75° W 21:31:10 10° N
ISS -0.2 21:26:34 10° WNW 21:28:45 17° NNW 21:30:58 10° N
ARGOS 4.1 21:28:02 26° E 21:29:18 29° ENE 21:33:52 10° N
CZ-4B R/B 3.8 21:25:09 10° NNE 21:29:40 37° E 21:30:09 36° ESE
YAOGAN 6 3.4 21:30:30 34° ENE 21:30:30 34° ENE 21:33:28 10° N
Cosmos 1939 Rocket 3.0 21:28:44 28° S 21:30:37 65° W 21:34:30 10° NNW
USA 234 4.2 21:26:40 10° ENE 21:30:12 24° E 21:30:12 24° E
Cosmos 1408 3.2 21:29:37 16° SSW 21:32:22 56° W 21:35:58 10° N
Cosmos 1242 Rocket 3.2 21:28:57 10° N 21:32:16 40° ENE 21:32:16 40° ENE
OAO 3 Rocket 3.1 21:28:54 10° WSW 21:33:50 76° SSE 21:36:05 32° E
Cosmos 1782 Rocket 3.7 21:31:51 18° SSW 21:35:06 78° W 21:39:35 10° N
ATLAS 5 CENTAUR R/B 3.9 21:29:55 10° NW 21:35:20 32° WSW 21:40:36 11° S
Terra 4.0 21:35:40 12° ENE 21:35:40 12° ENE 21:37:23 10° NE
SPOT 1/Viking Rocket 4.1 21:37:46 36° ESE 21:38:52 41° ENE 21:43:44 10° N
Atlas Centaur 2 2.2 21:38:03 10° W 21:40:37 29° SW 21:40:37 29° SW
Cosmos 1825 3.5 21:40:37 12° SSW 21:43:52 38° W 21:47:28 10° N
Meteor 2-13 Rocket 4.4 21:39:43 17° S 21:44:34 89° E 21:50:46 10° N
Cosmos 1238 Rocket 3.0 21:42:12 10° NNW 21:45:39 62° W 21:46:41 43° SSW
SPOT 5 3.0 21:43:46 37° SSE 21:45:56 89° WSW 21:51:19 10° NNW
Cosmos 2218 Rocket 4.1 21:45:05 36° SSE 21:47:40 60° E 21:53:56 10° NNE
Nadezhda 3 Rocket 4.4 21:43:47 10° NNW 21:50:02 61° W 21:54:38 19° SSW
Cosmos 1975 Rocket 3.1 21:50:04 10° N 21:54:23 72° W 21:55:11 55° SSW
MetOp-A 4.1 21:54:29 45° S 21:56:12 85° W 22:01:34 10° NNW
Meteor 1-25 Rocket 4.5 21:57:30 47° ESE 21:57:53 48° E 22:03:27 10° NNE
Cosmos 2278 Rocket 3.8 21:53:17 10° SW 21:58:22 34° WNW 22:03:29 10° N
Cosmos 1833 Rocket 3.5 21:53:35 10° N 21:58:39 34° ENE 21:59:10 33° ENE
SL-08 R/B 4.5 21:56:28 40° SSE 21:58:56 73° E 22:05:23 10° N
Cosmos 1850 Rocket 3.9 21:54:30 10° NNW 21:59:49 71° ENE 22:00:35 61° SE
Cosmos 1959 Rocket 4.3 21:58:28 41° S 22:00:43 78° E 22:06:49 10° N
DNEPR-1 R/B 3.5 21:58:21 10° NNW 22:03:25 75° ENE 22:03:31 74° ENE
Cosmos 1727 Rocket 4.2 22:00:39 10° N 22:06:36 49° E 22:07:08 47° E
Cosmos 1536 Rocket 4.5 22:03:02 10° N 22:06:20 37° NE 22:06:20 37° NE
GPS 2-05 Rocket1 4.3 22:11:11 10° WNW 22:13:39 37° WNW 22:13:39 37° WNW
Meteor 2-8 Rocket 4.5 22:10:19 10° N 22:16:24 59° E 22:16:47 58° E
USA 245 4.5 22:19:50 37° NW 22:19:50 37° NW 22:22:26 10° NNW
USA 229 DEB 4.0 22:12:35 10° NNW 22:19:33 55° NE 22:20:58 48° E
USA 229 4.0 22:12:41 10° NNW 22:19:39 55° NE 22:21:04 47° E
Cosmos 1741 Rocket 3.9 22:15:38 10° NNW 22:20:50 74° WSW 22:21:05 72° SW
Meteor 1-18 Rocket 4.3 22:15:06 10° N 22:20:59 65° E 22:21:09 64° E
Cosmos 2082 Rocket 2.1 22:16:52 10° NNW 22:22:33 72° ENE 22:22:40 71° E
Cosmos 1331 Rocket 4.4 22:24:05 51° NE 22:24:05 51° NE 22:28:02 10° NNE
H-2A R/B 4.3 22:26:51 15° WSW 22:28:12 17° W 22:31:03 10° NW
Cosmos 1339 Rocket 4.5 22:23:21 10° N 22:29:28 63° E 22:29:30 63° E
Cosmos 1110 Rocket 4.0 22:31:04 76° N 22:31:04 76° N 22:35:53 10° NNE
Cosmos 2151 Rocket 4.3 22:31:06 51° WNW 22:31:06 51° WNW 22:35:25 10° N
Timation 2 Rocket 4.2 22:27:39 10° NNW 22:33:28 55° WSW 22:34:12 52° SW
NOAA 11 4.5 22:39:28 58° WSW 22:39:43 58° W 22:45:08 10° NNW
H-2A R/B 2.7 23:03:30 55° NW 23:03:30 55° NW 23:07:49 10° NNW
Cosmos 2369 Rocket 3.8 23:08:35 24° NE 23:08:35 24° NE 23:10:51 10° NNE
Terra 3.2 23:14:33 35° NW 23:14:33 35° NW 23:17:27 10° NNW
USA 234 3.5 23:08:48 10° NE 23:15:15 66° NW 23:17:24 43° WSW
Cosmos 1943 Rocket 4.4 23:41:12 15° NE 23:41:12 15° NE 23:42:18 10° NE
Lacrosse 5 3.7 23:43:14 28° NNW 23:43:14 28° NNW 23:46:40 10° NNE
Cosmos 1833 Rocket 4.5 23:37:46 10° NW 23:40:52 23° WNW 23:40:52 23° WNW
